Satellite: PO-34
Catalog number: 25520
Epoch time:      06053.39135480
Element set:    0411
Inclination:      028.4581 deg
RA of node:       079.0698 deg
Eccentricity:    0.0005700
Arg of perigee:   072.3568 deg
Mean anomaly:     287.7655 deg
Mean motion:   15.16617622 rev/day
Decay rate:       7.00e-06 rev/day^2
Epoch rev:           40460
Checksum:              292

Satellite: ISS
Catalog number: 25544
Epoch time:      06054.78765046
Element set:     409
Inclination:      051.6427 deg
RA of node:       050.7444 deg
Eccentricity:    0.0008445
Arg of perigee:   290.5654 deg
Mean anomaly:     065.8467 deg
Mean motion:   15.73798580 rev/day
Decay rate:     3.4261e-04 rev/day^2
Epoch rev:           41528
Checksum:              324

Satellite: OO-38
Catalog number: 26063
Epoch time:      06054.77240059
Element set:     552
Inclination:      100.1890 deg
RA of node:       325.4086 deg
Eccentricity:    0.0037308
Arg of perigee:   066.7852 deg
Mean anomaly:     293.7249 deg
Mean motion:   14.35754476 rev/day
Decay rate:       -2.4e-07 rev/day^2
Epoch rev:           31839
Checksum:              315

Satellite: NO-45
Catalog number: 26932
Epoch time:      06054.18315330
Element set:     248
Inclination:      067.0588 deg
RA of node:       301.0136 deg
Eccentricity:    0.0007357
Arg of perigee:   287.2637 deg
Mean anomaly:     072.7667 deg
Mean motion:   14.29517366 rev/day
Decay rate:       1.78e-06 rev/day^2
Epoch rev:           22967
Checksum:              320

Satellite: UWE-1
Catalog number: 28892
Epoch time:      06054.72159174
Element set:     380
Inclination:      098.1749 deg
RA of node:       314.7062 deg
Eccentricity:    0.0017501
Arg of perigee:   161.7336 deg
Mean anomaly:     198.4490 deg
Mean motion:   14.59307975 rev/day
Decay rate:       1.39e-06 rev/day^2
Epoch rev:            1742
Checksum:              316

Satellite: XI-V
Catalog number: 28895
Epoch time:      06054.16850020
Element set:     363
Inclination:      098.1767 deg
RA of node:       314.2022 deg
Eccentricity:    0.0017964
Arg of perigee:   163.6238 deg
Mean anomaly:     196.5565 deg
Mean motion:   14.59363801 rev/day
Decay rate:       1.85e-06 rev/day^2
Epoch rev:            1722
Checksum:              302

Satellite: NCUBE2
Catalog number: 28897
Epoch time:      06053.67788182
Element set:      32
Inclination:      098.1757 deg
RA of node:       313.7174 deg
Eccentricity:    0.0017221
Arg of perigee:   167.6724 deg
Mean anomaly:     192.4898 deg
Mean motion:   14.59516075 rev/day
Decay rate:       1.37e-06 rev/day^2
Epoch rev:             942
Checksum:              330

Satellite: AO-54
Catalog number: 28933
Epoch time:      06054.84171903
Element set:      26
Inclination:      051.6434 deg
RA of node:       050.3417 deg
Eccentricity:    0.0007299
Arg of perigee:   326.7827 deg
Mean anomaly:     033.2896 deg
Mean motion:   15.76010347 rev/day
Decay rate:     4.4535e-04 rev/day^2
Epoch rev:             313
Checksum:              296

/EX


----
Via the keps mailing list at AMSAT.ORG courtesy of AMSAT-NA.
To unsubscribe, send "unsubscribe keps" to Majordomo@amsat.org

--- ViaMAIL!/WC v1.60d
 * Origin: Chowdanet (401-724-4410) telnet://chowdanet.com  (1:323/120)